Regional Weather Roundup
Issued by NWS Albany, NY

Home | Current Version | Previous Version | Text Only | Print | Product List | Glossary On
Versions: 1 2 3 4 5 6 7 8 9 10 11 12 13 14 15 16 17 18 19 20 21 22 23 24 25 26 27 28 29 30 31 32 33 34 35 36
000
ASUS41 KALY 220510
RWRALY

NEW YORK STATE HOURLY WEATHER ROUNDUP
NATIONAL WEATHER SERVICE ALBANY NY
100 AM EDT WED OCT 22 2014

NOTE: "FAIR" INDICATES FEW OR NO CLOUDS BELOW 12,000 FEET WITH NO
SIGNIFICANT WEATHER AND/OR NO OBSTRUCTIONS TO VISIBILITY.

NYZ032-033-038>043-046>054-057>066-NYZ062>081-220600-
EAST


CITY           SKY/WX    TMP DP  RH WIND       PRES   REMARKS
ALBANY         CLOUDY    50  47  89 N8        30.02S
GLENS FALLS    CLOUDY    50  45  83 N8        30.04F
POUGHKEEPSIE   CLOUDY    53  51  93 N8        29.94F
NEWBURGH       CLOUDY    52  52 100 VRB3      29.95F
MONTGOMERY     CLOUDY    52  50  93 N12       29.94F
WHITE PLAINS   CLOUDY    55  51  86 NE8       29.90F
ISLIP          CLOUDY    58  56  93 NE10      29.88F
NEW YORK CITY  MOCLDY    57  52  83 NE8       29.90S
CENTRAL PARK   MOCLDY    55  52  89 VRB6      29.93S
$$

NYZ005>009-017-018-044>046-055-056-220600-
CENTRAL


CITY           SKY/WX    TMP DP  RH WIND       PRES   REMARKS
FULTON         LGT RAIN  46  43  89 N10       30.05S FOG
SYRACUSE       CLOUDY    50  48  92 N6        30.03S
ROME           CLOUDY    50  45  83 NE3       30.04S
ELMIRA         CLOUDY    50  49  96 N7        30.00S
BINGHAMTON     CLOUDY    49  47  93 NE6       29.97S
MONTICELLO     CLOUDY    48  48 100 N3        29.96F
$$

NYZ026>034-041>043-220600-
NORTH


CITY           SKY/WX    TMP DP  RH WIND       PRES   REMARKS
WATERTOWN      CLOUDY    45  38  76 NE18G25   30.10S
FORT DRUM      NOT AVBL
MASSENA        CLOUDY    45  36  70 NE15      30.16S
SARANAC LAKE   CLOUDY    41  41 100 NE9       30.07F FOG
PLATTSBURGH    CLOUDY    45  43  93 N15       30.12S
$$

NYZ001>004-010>016-019>021-220600-
WEST


CITY           SKY/WX    TMP DP  RH WIND       PRES   REMARKS
NIAGARA FALLS  CLOUDY    44  41  89 NE13      30.12S FOG
BUFFALO        DRIZZLE   44  42  93 N13G20    30.10S FOG
DUNKIRK        CLOUDY    46  43  89 NE8       30.10S
JAMESTOWN      CLOUDY    43  39  87 N8        30.06S
WELLSVILLE     FOG       43  42  97 VRB7      30.03S VSB 1/4
ROCHESTER      CLOUDY    47  44  90 NE18G24   30.08S
PENN YAN       CLOUDY    47  45  93 VRB6      30.04R FOG
$$

             KEY
       WCI = WIND CHILL INDEX
       VSB = VISIBILITY
       HX  = HEAT INDEX
$$



USA.gov is the U.S. government's official web portal to all federal, state and local government web resources and services.